Regional Weather Roundup
Issued by NWS Midland/Odessa, TX

Home | Current Version | Previous Version | Text Only | Print | Product List | Glossary On
Versions: 1 2 3 4 5 6 7 8 9 10 11 12 13 14 15 16 17 18 19 20 21 22 23 24 25 26 27 28 29 30 31 32 33 34 35 36 37 38 39 40 41 42 43 44 45 46 47 48 49 50
000
ASUS44 KMAF 230010
RWRMAF
MIDLAND AREA WEATHER ROUNDUP
NATIONAL WEATHER SERVICE MIDLAND TX
600 PM CST WED NOV 22 2017

...IN SOUTHWEST TEXAS AND SOUTHEAST NEW MEXICO...

CITY           SKY/WX    TMP DP  RH WIND       PRES   REMARKS
ALPINE         CLEAR     59  22  24 E5        30.35S
ANDREWS        FAIR      53  26  34 S6        30.27F
ARTESIA        CLEAR     57  28  33 SE10      30.24F
BIG SPRING     CLEAR     54  24  31 CALM      30.30S
CARLSBAD       CLOUDY    55  31  39 SE8       30.24R
DRYDEN           N/A     61  30  31 E3        30.27R
FORT STOCKTON  CLEAR     55  27  34 E8        30.28F
GUAD PASS      CLEAR     56  24  29 W17       30.32S
HOBBS          CLEAR     52  27  37 SW7       30.26F
LAMESA         FAIR      52  27  37 SE8       30.28S
MARFA          CLOUDY    57  20  23 S6        30.32S
MIDLAND AIRPK  CLEAR     56  26  31 S5        30.28F
MIDLAND INTL   CLOUDY    56  23  27 S6        30.27F
ODESSA         CLEAR     54  23  30 S5        30.28F
PECOS          CLEAR     56  27  33 E7        30.26F
PRESIDIO       FAIR      67  26  21 S6        30.28R
SEMINOLE       CLEAR     51  27  38 SW5       30.27F
SNYDER         CLOUDY    53  24  32 S5        30.28S
WINK           CLEAR     53  27  36 SE6       30.26F
$$
...OTHER STATIONS IN TEXAS...

CITY           SKY/WX    TMP DP  RH WIND       PRES   REMARKS
ABILENE        CLOUDY    51  20  29 N3        30.29F
AMARILLO       CLOUDY    52  30  43 S10       30.22S
AUSTIN         PTCLDY    49  26  41 N8        30.27R
BROWNSVILLE    PTCLDY    67  51  56 N7        30.20R
CORPUS CHRISTI MOCLDY    67  46  47 N14       30.21R
DALLAS FTW     PTCLDY    51  21  30 N8        30.27S
DEL RIO        CLOUDY    61  34  36 NW5       30.25F
EL PASO        PTCLDY    65  24  21 W6        30.25F
HOUSTON INT    PTCLDY    60  42  51 N9        30.22R
LUBBOCK        CLOUDY    51  26  37 SW7       30.25F
SAN ANGELO     CLEAR     53  25  33 E6        30.28S
SAN ANTONIO    PTCLDY    60  27  28 N5        30.26S
WACO           CLEAR     49  20  31 N7        30.28S
WICHITA FALLS  PTCLDY    40  21  46 S9        30.21F WCI  34
$$
...OTHER LOCATIONS IN NEW MEXICO...

CITY           SKY/WX    TMP DP  RH WIND       PRES   REMARKS
ALAMOGORDO     CLEAR     61  25  25 NW5       30.28S
ALBUQUERQUE    PTCLDY    60  27  28 S3        30.31S
CANNON AFB     CLOUDY    52  28  39 W6        30.27S
CLOVIS         CLOUDY    48  30  49 NW7       30.26F
HOLLOMAN AFB   CLEAR     60  26  27 W7        30.29F
ROSWELL        CLOUDY    56  28  34 SE7       30.23F
RUIDOSO        CLEAR     50  21  32 NW9       30.36S
SANTA FE       CLEAR     54  27  35 W6        30.32S
TRUTH OR CONSE CLEAR     63  24  22 S6        30.28R
TUCUMCARI      CLEAR     57  29  34 S5        30.21F
$$




USA.gov is the U.S. government's official web portal to all federal, state and local government web resources and services.